Weather History for KBAD - February, 2012

Change the Weather History Date:

Sunday, February 26, 2012

  Actual Average Record
Temperature  
Mean Temperature 50 °F -  
Max Temperature 67 °F 59 °F 78 °F (2009)
Min Temperature 33 °F 41 °F 28 °F (2002)
Degree Days  
Heating Degree Days 15    
Moisture  
Dew Point 34 °F    
Average Humidity 56    
Maximum Humidity 84    
Minimum Humidity 27    
Precipitation  
Precipitation 0.00 in - - ()
Sea Level Pressure  
Sea Level Pressure 30.20 in    
Wind  
Wind Speed 5 mph (SSE)    
Max Wind Speed 13 mph    
Max Gust Speed 18 mph    
Visibility 10 miles    
Events      
Averages and records for this station are not official NWS values.
T = Trace of Precipitation, MM = Missing Value Source: NWS Daily Summary

Daily Weather History Graph

Daily Weather History Graph

Search for Another Location

Airport or City:

Trip Planner

Search our weather history database for the weather conditions in past years. The results will help you decide how hot, cold, wet, or windy it might be!

Date:

Astronomy

Feb. 26, 2012 Rise Set
Actual Time 6:46 AM CST 6:09 PM CST
Civil Twilight 6:21 AM CST 6:34 PM CST
Nautical Twilight 5:53 AM CST 7:02 PM CST
Astronomical Twilight 5:24 AM CST 7:31 PM CST
Moon 9:01 AM CST (2/26) 10:46 PM CST (2/26)
Length of Visible Light 12h 12m
Length of Day
11h 23m
Waxing Crescent, 21% of the Moon is Illuminated
Feb 26
Waxing Crescent
Feb 29
First Quarter
Mar 8
Full
Mar 14
Last Quarter
Mar 22
New

Hourly Weather History & Observations

Time (CST) Temp. Windchill Dew Point Humidity Pressure Visibility Wind Dir Wind Speed Gust Speed Precip Events Conditions
12:55 AM 38.7 °F 35.2 °F 29.8 °F 71% 30.24 in 10.0 mi SE 4.6 mph - N/A   Clear
1:55 AM 37.6 °F 34.0 °F 29.3 °F 72% 30.25 in 10.0 mi SSE 4.6 mph - N/A   Clear
2:55 AM 40.8 °F - 29.7 °F 64% 30.24 in 10.0 mi Calm Calm - N/A   Clear
3:55 AM 35.8 °F - 30.0 °F 80% 30.24 in 10.0 mi Calm Calm - N/A   Clear
4:55 AM 34.3 °F - 29.3 °F 82% 30.25 in 10.0 mi Calm Calm - N/A   Clear
5:55 AM 33.8 °F - 29.1 °F 83% 30.25 in 10.0 mi Calm Calm - N/A   Clear
6:55 AM 33.6 °F - 29.1 °F 84% 30.26 in 10.0 mi Calm Calm - N/A   Clear
7:55 AM 39.4 °F - 34.0 °F 81% 30.27 in 10.0 mi Calm Calm - N/A   Clear
8:55 AM 48.2 °F - 34.0 °F 58% 30.27 in 10.0 mi SSE 5.8 mph - N/A   Clear
9:55 AM 54.0 °F - 32.2 °F 44% 30.27 in 10.0 mi South 4.6 mph - N/A   Clear
10:55 AM 58.6 °F - 29.3 °F 33% 30.26 in 10.0 mi South 6.9 mph - N/A   Clear
11:55 AM 60.6 °F - 30.4 °F 32% 30.24 in 10.0 mi South 12.7 mph - N/A   Clear
12:55 PM 63.5 °F - 29.3 °F 28% 30.20 in 10.0 mi SSE 11.5 mph 18.4 mph N/A   Clear
1:55 PM 64.8 °F - 30.7 °F 28% 30.16 in 10.0 mi SSE 11.5 mph - N/A   Clear
2:55 PM 66.2 °F - 32.2 °F 28% 30.14 in 10.0 mi SE 11.5 mph - N/A   Clear
3:55 PM 67.1 °F - 31.6 °F 27% 30.13 in 10.0 mi SSE 12.7 mph - N/A   Clear
4:55 PM 66.4 °F - 32.7 °F 29% 30.12 in 10.0 mi SSE 11.5 mph - N/A   Clear
5:55 PM 63.0 °F - 34.7 °F 35% 30.11 in 10.0 mi SSE 6.9 mph - N/A   Clear
6:55 PM 58.6 °F - 36.5 °F 44% 30.13 in 10.0 mi South 3.5 mph - N/A   Clear
7:55 PM 53.8 °F - 39.0 °F 57% 30.14 in 10.0 mi SE 5.8 mph - N/A   Clear
8:55 PM 55.0 °F - 40.8 °F 59% 30.15 in 10.0 mi SE 6.9 mph - N/A   Clear
9:55 PM 53.6 °F - 44.4 °F 71% 30.17 in 10.0 mi SSE 9.2 mph - N/A   Clear
10:55 PM 51.4 °F - 44.6 °F 77% 30.19 in 10.0 mi SSE 8.1 mph - N/A   Clear
11:55 PM 48.9 °F - 44.1 °F 83% 30.21 in 10.0 mi SE 4.6 mph - N/A   Clear